Location: San Pelegr�n
(42.1868°N, 0.0079°E)
Time: 03:34:37
(UTC+00:00)

Cosmos 2366 rocket - Pass Details

Date: 24 January 2020
Orbit: 956 x 996 km, 82.9° (Epoch: 17 February)

Event Time Altitude Azimuth Distance (km) Brightness Sun altitude
Rises 18:25:24 0° 184° (S) 3,639 7.2 -15.2°
Reaches altitude 10° 18:27:52 10° 184° (S) 2,702 6.5 -15.6°
Maximum altitude 18:34:05 87° 96° (E) 983 4.0 -16.7°
Drops below altitude 10° 18:40:24 10° 8° (N) 2,748 6.2 -17.9°
Sets 18:42:56 0° 9° (N) 3,706 6.9 -18.4°
